Main page
METAR-TAF:

METAR-TAF

Airports :

Clinton Municipal Airport

Clinton, Iowa, United States

latitude: 41-50N, longitude: 090-20W, elevation: 708 ft

Current weather observation

The report was made 1 hour and 2 minutes ago, at 02:56 UTC
Wind 3 mph from the West
Temperature 73°F
Humidity 83%
Pressure 29.91 in. Hg
Visibility: 10 miles
Broken clouds at a height of 10000 ft

METAR: KCWI 240256Z AUTO 26003KT 10SM BKN100 23/20 A2991 RMK AO2 SLP127 6//// T02280200 53006 PNO $

Time: 22:58 (03:58 UTC)


TAF: missing

Weather observations and forecasts of more than 4000 airports (METAR and TAF reports).

The available stations are represented by yellow and red dots on the map.

Hover mouse over dot to see the name of the station.

Then click to see weather observations and forecasts.

To change the map : click on the green buttons with a black cross to zoom in, on the green button with a dash to zoom out, or on the green arrows for adjacent maps.


METAR-TAF: